Location: Demmingen
(48.6757°N, 10.4375°E)
Time: 04:45:10
(UTC+00:00)

CZ-2C R/B - Pass Details

Date: 14 August 2024
Orbit: 782 x 869 km, 98.3° (Epoch: 08 September)

Event Time Altitude Azimuth Distance (km) Brightness Sun altitude
Exits shadow 02:55:42 12° 260° (W) 2,362 4.5 -11.5°
Maximum altitude 02:57:01 12° 275° (W) 2,296 4.5 -11.3°
Drops below altitude 10° 02:59:14 10° 299° (WNW) 2,457 4.9 -11.0°
Sets 03:03:13 0° 328° (NNW) 3,376 5.9 -10.5°
